Temp
25 24 24 24 24 24 24 25 25 25 25 24 25 25 25 24 24 24 24 24 25 25 25 25 25 25 25 25 25 25 25 25 24 26 26 26 25 26 26 26 26 26 26
25 25 24 24 24 24 24 24 24 25 25 25 25 24 24 24 24 24 24 24 24 25 25 25 25 25 25 25 25 25 25 25 24 24 25 25 26 26 26 26 26 25 26
25 25 25 25 24 24 24 24 25 24 25 24 24 24 24 24 24 24 24 24 24 25 24 24 25 24 24 24 25 25 25 25 25 24 24 25 25 25 25 25 25 25 25
26 26 25 25 25 25 25 25 25 25 24 24 24 24 24 24 24 24 24 24 24 24 24 24 24 24 24 25 25 25 25 25 24 24 24 24 24 25 24 24 24 25 25
26 26 26 26 26 25 26 25 25 25 25 25 24 24 24 24 24 24 24 24 24 24 24 24 24 24 25 25 25 25 25 25 24 24 23 23 23 23 23 22 21 22 22
27 27 26 26 26 26 26 26 25 25 25 24 24 24 23 24 24 24 24 24 24 24 24 24 24 25 25 25 25 25 25 25 24 23 23 22 22 22 22 21 20 20 20
27 27 26 26 26 26 26 26 26 25 25 24 24 24 24 24 24 23 24 24 24 24 24 24 24 24 25 25 25 25 24 24 24 24 22 22 22 22 21 20 20 19 19
29 28 27 27 26 27 27 26 26 25 25 24 24 24 24 23 23 24 24 24 24 24 24 24 25 25 25 24 24 24 24 24 23 23 22 22 22 21 20 20 19 18 18
28 28 28 28 27 27 27 26 26 25 25 24 24 24 24 23 23 23 23 23 24 24 24 24 25 25 25 24 24 24 24 23 22 22 22 21 20 20 20 19 19 17 16
26 27 27 27 27 26 26 26 26 25 25 25 24 24 24 24 24 23 23 24 23 23 24 24 24 24 24 24 24 23 23 22 21 21 20 20 20 20 20 19 19 17 17
25 25 26 26 26 26 26 25 25 25 25 25 25 25 24 24 23 23 24 24 23 23 23 23 23 24 24 24 23 22 21 21 20 20 20 19 19 19 19 19 19 18 17
24 25 25 25 25 25 25 25 25 25 25 23 21 21 23 24 23 24 24 27 25 24 23 23 23 23 23 23 22 21 21 20 19 19 18 18 18 19 18 19 18 18 17
23 23 23 24 24 25 25 25 23 22 21 21 22 19 20 22 22 22 23 24 24 22 23 22 21 22 22 20 20 20 19 19 18 18 17 17 18 18 18 18 18 17 16
24 23 23 23 24 23 22 22 22 23 22 21 20 20 21 21 22 22 21 21 20 19 20 19 20 20 20 20 20 19 19 19 18 17 17 18 17 17 17 18 18 17 16
23 23 24 24 24 24 23 22 23 23 23 24 23 23 21 21 23 22 21 20 19 20 20 18 17 18 19 18 18 18 18 18 17 17 17 17 17 17 17 17 17 16 15
22 23 23 23 24 24 24 23 23 23 23 22 21 22 22 22 22 22 20 18 17 18 17 17 18 19 19 19 19 19 18 18 18 17 17 17 17 17 17 17 16 15 15
22 22 23 23 23 24 24 23 22 22 22 21 21 22 22 21 19 20 21 20 19 17 18 18 18 19 19 20 20 20 19 19 19 18 17 17 18 17 17 16 16 15 15
22 22 22 23 23 23 24 23 21 19 21 22 22 23 23 22 20 19 18 19 18 19 19 19 19 19 19 20 20 21 21 20 19 18 18 18 17 17 17 16 16 16 15
22 22 22 23 23 23 24 25 25 25 25 24 24 24 24 23 21 18 17 17 18 18 18 18 18 18 19 21 22 22 22 20 19 18 18 18 18 18 17 16 16 16 15
21 22 22 22 23 23 24 24 24 24 25 26 24 25 24 20 18 18 17 17 17 17 17 18 18 18 20 21 22 22 22 21 20 19 18 18 18 18 17 17 16 16 15
20 21 22 22 23 22 23 23 23 24 25 25 25 25 25 24 23 21 20 18 17 16 17 18 18 18 20 21 22 22 22 21 20 20 19 19 18 17 17 17 16 16 15
19 20 21 21 21 22 22 23 23 24 24 24 25 25 25 24 21 22 21 20 21 20 17 18 19 20 20 21 21 22 21 20 20 20 19 19 18 18 18 17 16 16 15
18 19 20 20 20 20 21 22 23 23 23 24 25 25 25 23 21 20 21 21 21 20 18 18 20 20 21 21 22 22 22 21 21 21 20 19 19 18 17 16 17 16 16
17 17 18 19 19 19 19 20 23 24 24 25 25 25 24 23 22 20 21 22 21 20 20 20 20 20 21 22 22 22 22 22 22 21 21 20 19 18 18 17 17 16 16
16 17 17 18 19 19 19 19 22 23 23 23 23 23 22 21 21 21 22 21 20 20 21 21 21 21 21 22 23 23 22 22 22 22 22 20 20 19 18 19 18 18 17
14 15 16 16 17 17 19 19 18 17 17 17 17 18 19 20 20 21 20 22 21 21 21 20 21 21 22 22 23 23 23 23 22 22 22 21 21 20 20 20 20 20 18
Height
764 770 777 782 787 791 796 799 802 806 811 815 816 817 818 821 827 832 834 834 835 835 836 838 838 839 839 839 839 839 839 839 838 835 833 833 832 831 830 829 830 831 829
757 764 770 777 781 786 789 793 797 801 805 809 813 814 816 819 823 825 827 829 830 831 833 833 834 835 835 836 837 837 836 836 835 834 832 832 831 829 828 828 827 826 825
753 758 764 769 775 779 783 787 792 796 800 803 807 810 812 816 818 820 822 824 826 827 828 829 830 831 831 832 834 834 833 831 831 831 829 828 827 827 825 825 823 821 820
752 753 757 761 767 773 777 782 787 791 795 798 801 805 808 812 815 817 818 820 821 822 824 825 826 827 827 828 829 829 829 828 828 827 827 827 825 823 821 821 819 818 816
752 750 750 754 760 767 773 777 781 786 790 793 796 799 802 806 808 811 813 815 816 818 819 820 821 822 823 823 824 824 824 823 823 824 823 823 823 823 822 820 819 817 813
740 749 749 750 755 760 768 773 777 780 785 790 792 795 797 799 802 804 806 808 810 811 813 814 815 816 817 817 817 818 819 820 819 820 819 819 818 819 819 818 816 815 811
736 742 748 747 752 757 762 768 772 776 781 785 787 790 792 795 798 801 803 804 805 806 807 809 809 810 812 812 812 812 813 815 816 815 814 814 813 814 814 814 813 811 809
734 737 743 745 748 754 758 763 767 771 775 780 784 786 789 791 795 798 800 801 802 802 803 803 804 805 806 807 808 807 808 809 809 810 810 810 810 810 811 811 809 807 804
738 737 742 745 746 750 754 757 762 765 768 773 777 780 782 785 789 792 795 796 798 799 800 800 800 800 801 802 802 802 802 802 804 804 804 804 805 807 807 806 805 806 803
738 738 740 743 748 749 751 754 756 759 761 764 768 771 773 777 783 786 789 792 793 795 795 795 796 797 797 798 798 797 797 798 800 799 800 800 801 802 802 801 801 801 801
739 737 742 743 745 748 749 751 751 756 758 760 764 767 773 774 776 776 777 784 788 789 788 787 786 786 788 790 792 792 792 794 795 794 795 795 795 797 797 796 796 797 798
740 740 740 744 746 745 745 750 751 753 756 759 766 765 767 767 772 770 768 759 769 774 779 777 773 774 777 782 786 788 787 788 790 790 790 791 791 793 793 792 792 792 793
747 744 742 741 745 742 740 748 749 750 754 755 752 749 765 771 769 766 764 759 763 767 771 773 772 769 767 773 778 782 782 782 785 785 785 787 788 789 790 790 789 789 789
746 746 745 743 742 744 744 747 745 743 747 750 747 755 758 764 761 758 756 757 761 762 765 769 768 764 764 765 769 773 775 776 780 782 783 784 785 785 787 786 785 784 784
748 747 746 744 746 744 742 743 741 738 739 738 739 743 749 750 747 748 750 753 757 759 763 764 763 759 759 760 763 767 768 773 776 778 781 781 783 782 783 784 783 782 782
745 744 744 743 743 747 740 737 736 735 735 736 735 734 737 740 745 745 746 746 750 755 758 758 754 754 755 750 756 760 764 768 771 774 777 777 779 778 780 780 780 781 781
742 741 740 739 741 739 738 737 736 738 738 736 735 729 732 737 742 744 745 746 747 749 749 750 751 747 743 747 754 758 760 762 764 769 771 773 775 776 777 777 777 776 777
738 738 738 736 735 734 734 734 734 742 738 730 732 732 727 732 735 738 741 743 743 742 741 741 740 740 743 748 751 753 754 756 759 763 766 768 770 772 773 772 773 774 774
732 733 733 731 730 729 728 727 726 727 725 724 727 726 723 726 729 732 735 736 735 734 734 736 736 738 740 743 745 747 749 751 755 757 759 762 764 766 768 768 769 771 770
724 725 726 726 725 722 721 721 719 719 719 718 718 717 717 722 724 724 725 728 729 729 728 730 731 733 734 737 739 741 743 745 750 752 753 756 759 760 762 764 765 766 766
717 719 718 719 719 719 717 715 714 714 712 711 711 712 712 713 714 715 715 717 718 720 722 724 725 726 728 732 733 734 736 740 743 745 748 749 752 754 755 758 761 762 764
712 712 712 712 712 712 711 709 709 707 705 705 704 704 705 704 706 707 708 709 709 711 714 717 718 719 723 726 727 729 731 734 736 740 741 743 747 749 750 752 754 757 758
706 706 706 705 706 706 705 703 701 699 698 699 700 699 698 698 699 701 703 704 706 706 707 710 713 715 717 719 721 723 725 727 729 735 736 736 741 744 747 747 748 752 754
699 698 698 699 700 701 701 699 694 693 692 692 692 693 693 693 693 695 696 699 699 702 703 705 707 709 711 712 714 717 720 723 724 727 729 730 732 737 740 742 743 746 748
696 695 695 694 695 694 695 698 692 689 687 685 688 689 689 688 690 688 694 694 699 697 696 698 699 702 706 707 710 711 714 717 721 722 722 727 727 728 733 735 738 738 740
692 691 691 691 691 689 689 688 686 686 687 686 688 688 690 688 689 690 687 686 687 690 690 691 694 695 699 704 705 706 709 712 716 718 721 721 725 725 726 729 733 733 732
Wind_Speed
37 34 32 33 34 31 29 24 27 24 23 22 20 21 21 23 24 24 20 18 15 10 15 14 10 10 14 16 13 13 10 6 2 8 12 11 13 16 16 13 15 16 15
36 34 33 31 31 32 32 28 23 24 25 21 21 21 23 25 27 25 21 19 19 11 14 16 16 13 15 14 14 14 11 8 8 8 13 16 17 19 21 19 17 20 23
36 34 34 33 34 31 33 30 26 26 24 26 19 19 22 23 22 23 22 21 22 18 13 14 15 16 16 15 15 14 15 15 14 13 16 17 19 17 16 12 8 11 18
35 36 33 34 35 32 32 30 29 27 27 25 24 24 25 24 22 21 19 20 21 19 19 19 18 17 18 18 17 20 17 16 17 16 16 17 17 19 18 10 16 17 22
34 35 35 37 34 34 30 30 31 28 27 24 29 24 25 25 24 24 24 22 21 20 21 22 20 20 21 22 21 24 21 20 20 17 17 19 20 17 14 10 13 16 24
36 33 34 34 35 35 33 29 30 30 27 27 26 30 27 27 29 27 25 25 24 24 24 23 24 21 22 19 20 26 25 24 23 20 21 18 21 19 16 15 13 11 7
32 30 31 34 33 34 33 32 31 33 28 26 26 25 26 31 28 26 26 26 27 27 24 24 23 25 23 22 20 18 17 19 19 21 24 23 20 17 16 15 15 14 17
18 28 31 32 32 33 31 31 28 29 32 30 30 29 27 28 27 26 26 27 25 29 29 24 21 22 23 20 16 19 19 18 19 16 17 20 21 17 14 15 19 22 22
4 9 17 25 29 30 29 28 28 27 29 31 29 29 28 27 25 23 24 27 29 25 24 26 28 26 25 25 25 24 25 22 17 18 19 15 14 15 16 15 16 11 11
7 2 7 10 14 22 27 27 28 29 30 29 31 30 29 27 22 21 20 23 26 26 27 26 25 28 30 30 27 24 22 21 18 17 15 13 13 15 17 19 16 12 9
6 7 2 6 10 12 18 23 25 26 26 27 27 22 18 19 21 21 17 15 26 31 30 26 23 23 24 27 28 22 17 17 17 18 19 20 19 19 17 12 13 16 14
4 3 7 4 6 8 7 13 16 17 17 12 10 12 10 11 23 21 21 12 30 38 35 28 26 16 12 21 20 18 17 17 17 17 17 16 14 8 7 3 6 10 12
5 3 4 7 9 7 6 13 7 4 8 14 17 10 20 29 26 21 19 18 28 38 34 28 17 13 11 15 15 16 17 16 15 15 12 12 11 12 11 7 7 8 7
12 9 9 8 7 7 6 8 13 14 11 17 15 23 26 30 31 24 17 15 16 16 17 16 15 12 9 10 13 16 17 16 14 14 12 11 12 10 10 10 12 11 13
17 13 14 15 15 13 13 16 15 15 18 24 25 23 22 24 25 21 22 24 20 14 10 13 13 12 11 12 13 15 14 15 16 14 14 11 11 10 12 12 12 11 11
18 17 18 18 11 21 18 17 18 17 16 18 20 19 22 22 17 11 10 13 20 20 18 17 18 13 12 6 12 14 17 19 20 16 15 13 13 11 12 11 9 10 11
18 19 22 23 22 12 16 19 19 21 21 21 20 17 20 23 22 20 12 5 7 15 16 15 15 9 8 11 18 21 24 27 22 20 17 15 13 11 12 10 10 11 11
19 21 23 23 24 21 16 5 4 20 28 21 22 21 18 22 22 20 21 21 18 18 18 19 19 18 17 24 27 26 22 22 26 23 18 15 14 13 14 13 12 11 12
24 23 24 26 25 23 22 19 15 11 10 10 12 14 15 19 21 19 20 22 25 26 25 26 27 25 26 27 26 29 24 23 25 22 16 15 15 15 17 14 13 12 9
21 29 26 24 24 25 21 17 15 17 19 20 17 19 17 20 21 25 25 26 26 26 27 29 30 31 30 25 27 23 24 21 23 19 17 17 17 17 16 15 14 15 12
18 21 19 26 26 25 30 26 23 23 22 23 27 29 27 27 31 31 32 32 32 30 29 31 31 30 33 27 26 27 25 27 24 18 20 20 20 21 18 16 14 15 11
20 19 20 21 20 19 26 29 29 29 27 26 28 27 26 30 30 30 31 31 30 31 30 27 28 28 29 33 27 24 25 26 23 22 22 22 23 21 19 18 17 15 14
17 17 19 18 19 18 27 26 30 28 27 29 32 29 27 27 27 28 28 27 25 25 24 29 27 29 30 31 30 30 26 25 24 25 28 27 25 22 20 21 20 20 21
20 22 23 23 21 22 25 25 28 26 25 26 24 20 20 23 26 24 26 26 25 26 22 30 31 25 30 29 31 29 26 24 20 20 24 33 29 27 25 23 23 24 23
15 18 19 23 22 21 19 26 19 17 14 2 11 11 16 16 18 19 18 14 25 29 28 28 28 33 26 29 25 28 28 24 24 20 15 28 29 30 27 24 26 26 28
11 13 12 16 14 11 14 10 9 11 12 10 9 18 19 12 14 20 20 24 25 29 29 32 32 28 27 27 29 24 24 27 24 23 19 19 19 14 27 28 24 18 23
Wind_Direction
189 193 197 206 213 217 216 229 231 228 224 220 229 231 230 221 225 225 228 235 239 265 255 250 268 273 283 292 291 305 335 345 304 310 313 313 316 315 324 309 284 264 263
189 192 196 199 206 212 219 223 227 228 223 221 221 223 222 220 225 226 229 236 239 252 261 261 268 269 280 285 283 295 310 330 345 327 310 299 302 302 300 298 295 268 265
186 189 194 199 203 207 215 221 223 227 225 223 225 223 219 218 222 229 234 234 243 247 259 258 263 270 275 272 272 266 279 285 290 293 292 293 295 305 307 301 298 269 260
188 190 193 196 201 203 211 217 216 225 223 228 220 222 221 220 221 222 220 228 242 249 249 255 257 263 268 269 258 259 268 275 280 280 279 286 287 295 304 309 313 308 302
192 192 194 197 198 203 207 214 212 221 227 231 220 220 222 221 223 227 227 230 238 245 250 254 256 259 264 264 266 260 260 261 264 259 269 277 287 290 278 299 297 301 293
188 197 196 193 194 201 206 211 211 216 220 223 226 227 222 223 228 232 231 230 236 239 244 253 259 261 262 266 264 262 264 266 262 271 273 268 277 282 292 296 296 303 304
188 194 194 193 194 200 204 210 215 216 217 219 221 224 231 234 236 235 233 238 241 244 248 249 259 257 259 271 273 268 267 269 272 275 271 271 273 278 285 287 291 290 280
184 191 194 192 192 201 204 209 213 215 215 220 223 227 232 237 238 237 238 245 250 250 246 244 249 253 257 259 272 276 279 275 274 268 269 277 276 275 276 286 291 293 293
99 161 199 203 199 203 206 211 215 215 214 216 223 226 229 235 239 243 244 247 252 253 250 247 251 253 254 260 269 273 275 271 256 265 277 278 271 259 272 281 286 286 305
38 148 204 212 217 210 215 219 220 218 220 219 225 226 227 230 233 239 241 246 253 256 255 255 261 268 272 271 267 268 260 266 278 276 271 270 270 272 281 283 274 258 276
39 51 225 233 226 235 233 230 224 223 224 226 230 230 228 223 223 220 212 244 260 256 249 248 254 261 263 262 259 248 252 270 263 272 280 286 286 282 284 278 272 253 252
38 148 163 191 235 218 249 260 241 231 233 243 258 200 221 261 235 213 208 199 251 248 238 228 226 243 267 245 237 243 255 260 265 277 288 288 290 282 299 300 257 260 265
317 63 120 161 210 237 228 242 199 207 146 157 141 206 234 228 245 248 238 239 247 244 237 237 235 230 217 211 222 245 253 255 269 273 267 270 267 283 289 276 293 289 278
295 278 275 269 249 238 203 186 178 184 220 224 221 223 242 247 250 245 240 229 224 221 229 231 228 221 218 213 225 237 249 261 259 255 254 259 272 281 279 283 289 300 302
310 295 286 266 253 243 217 213 215 226 236 240 242 245 249 253 259 262 258 242 229 224 214 201 199 188 198 212 233 244 248 247 239 236 245 254 259 265 268 272 284 295 289
299 288 290 301 268 263 243 231 227 234 234 238 241 235 240 252 257 265 270 234 228 233 224 230 212 210 217 240 254 253 244 234 232 231 238 241 250 255 258 261 269 272 280
287 288 293 289 287 302 261 237 233 232 227 229 232 223 235 250 257 253 242 234 228 214 217 222 232 223 256 268 252 243 240 237 230 222 227 233 250 253 252 251 257 260 263
262 267 272 277 277 280 273 192 87 274 245 231 232 234 235 249 251 249 247 252 247 240 246 253 260 268 252 242 243 234 228 231 214 213 218 227 234 245 245 243 252 256 254
254 254 265 271 271 276 280 277 267 224 238 249 255 251 246 248 251 247 244 245 247 244 240 242 247 242 239 243 246 236 236 208 205 205 213 224 237 240 243 243 252 248 237
270 258 252 257 267 274 276 283 293 278 262 267 256 262 246 235 234 237 236 232 229 235 236 242 241 234 231 245 236 219 209 209 203 208 213 223 234 230 232 239 249 230 229
269 262 248 247 252 262 262 269 275 271 270 271 262 257 255 247 239 238 240 236 234 233 234 239 241 240 232 236 236 222 215 206 207 220 220 222 227 222 225 233 243 221 237
270 265 271 264 269 267 256 256 261 267 269 262 264 262 261 244 238 240 242 241 242 247 235 229 236 237 238 236 230 207 202 207 214 230 225 225 224 226 225 222 214 216 223
279 274 268 270 275 289 278 261 244 245 249 258 263 259 259 241 238 241 241 239 243 244 241 224 235 239 241 239 228 223 223 228 226 236 232 221 221 222 220 217 215 225 227
286 284 277 278 272 279 285 294 260 256 254 253 258 264 254 241 231 224 231 248 243 240 238 226 226 237 239 228 219 224 229 229 225 233 238 225 215 217 213 215 217 224 229
297 276 267 264 270 265 268 274 296 309 268 170 328 323 273 240 243 230 247 247 252 239 235 234 233 236 244 234 229 227 227 228 223 232 242 218 214 214 217 219 226 228 230
358 356 332 295 293 337 269 294 21 29 12 21 18 1 329 281 265 262 265 257 264 263 240 232 233 232 234 238 232 226 223 219 225 225 218 201 211 219 214 220 231 238 228